THURAYA-3

Last updated on Wed Jul 16 2025 00:02:45 GMT+0000 (Coordinated Universal Time)

1 32404U 08001A 25196.63436257 -.00000296 00000+0 00000+0 0 9997 2 32404 5.4330 34.9301 0002283 78.6175 147.0477 1.00271060 64118
UTC large
Height (km)
Speed (km/s)
/
Latitude / Longitude
Inclination (degrees)
Orbital Period (minutes)
Azimuth
Elevation
Range (km)
Doppler Factor

Next 0 passes for location: London (51.5072 / 0.1276)

Sorry there are no passes over London.